sat.trackr.live / text

‹ back to catalog

O3B FM3

NORAD 40079 · 2014-038A

PAYLOAD ACTIVE UNKNOWN

§ Identity

Operator
Country
O3B
Launch date
2014-07-10
Launch site
FRGUI
Launch vehicle
Mass (kg)
RCS (m²)
7.45

Purposes: comms

External: N2YO · Heavens-Above · Gunter

§ Orbital elements

Epoch: 2026-05-24T17:14:50.106336Z

Period
287.93 min
Inclination
0.0495°
Eccentricity
0.0001888
Mean motion
5.00115675 rev/d
Perigee alt
8,063.2 km
Apogee alt
8,068.6 km
Semi-major
14,444.0 km
B*
0.0000e+0
RAAN
354.6484°
Arg perigee
130.2511°
Mean anomaly
235.1175°
Rev number
21,187

§ Raw data

O3B FM31 40079U 14038A   26144.71863549 -.00000024  00000+0  00000+0 0  99912 40079   0.0495 354.6484 0001888 130.2511 235.1175  5.00115675211875

JSON: /api/v1/satellites/40079 · /tle

For live sub-satellite position, see the globe view (requires WebGL).

§ Visibility from observer

Set your observer location to see the next 7 days of passes ≥ 10°. The values pass through the URL so the page stays shareable.

No JS? Fill the form by hand. The geolocation button needs JavaScript.